Regional Weather Roundup
Issued by NWS

Home | Current Version | Previous Version | Graphics & Text | Print | Product List | Glossary On
Versions: 1 2 3 4 5 6 7 8 9 10 11 12 13 14 15 16 17 18 19 20 21 22 23 24 25 26 27 28 29 30 31 32 33 34 35 36 37 38 39 40 41 42 43 44 45 46 47 48 49 50
000
ASUS43 KIND 102009
RWRIN

WEATHER ROUNDUP FOR INDIANA
NATIONAL WEATHER SERVICE INDIANAPOLIS IN
300 PM EST SUN DEC 10 2017

NOTE: "FAIR" INDICATES FEW OR NO CLOUDS BELOW 12,000 FEET WITH NO
SIGNIFICANT WEATHER AND/OR OBSTRUCTIONS TO VISIBILITY.

* - STATION DOES NOT REPORT WEATHER SUCH AS PRECIPITATION OR FOG.

+ - STATION NOT QUALITY CONTROLLED BY THE NATIONAL WEATHER SERVICE.
    USE DATA WITH CAUTION...ESPECIALLY DEWPOINT AND RELATIVE
    HUMIDITY OBSERVATIONS.

INZ001>003-010>013-019-020-102100-
NORTHWEST INDIANA

CITY           SKY/WX    TMP DP  RH WIND       PRES   REMARKS
KNOX *+        CLOUDY    34  23  64 W10       29.87F WCI  26
LA PORTE +     MOSUNNY   33  22  64 W9        29.88S WCI  25
MICHIGAN CITY+ PTSUNNY   34  23  64 W9        29.89R WCI  26
MONTICELLO +   SUNNY     37  19  47 SW17G28   29.89S WCI  28
RENSSELAER +   SUNNY     37  16  41 W15       29.89S WCI  28
VALPARAISO     SUNNY     36  22  56 W15       29.88R WCI  27

$$

LMZ046-743>745-102100-
SOUTHERN LAKE MICHIGAN

STATION/POSITION TIME  TEMP    WIND        PRES    WAVE
                       AIR SEA DIR/SP/G            HT
                 (UTC) (F)     (DEG/KT/KT) (MB)    (FT)
BURNS HARBOR     1940   34     290/ 12/ 16 1012.2S
MICHIGAN CITY    1940   33     260/ 18/ 20   N/A

$$

INZ004-005-014>016-021>024-102100-
NORTH CENTRAL INDIANA

CITY           SKY/WX    TMP DP  RH WIND       PRES   REMARKS
ELKHART        CLOUDY    30  19  64 W8        29.87F WCI  23
GOSHEN         CLOUDY    29  20  69 SW8       29.88F WCI  21
LOGANSPORT +   MOSUNNY   36  23  60 W20G26    29.91R WCI  25
PERU/GRISSOM   MOSUNNY   35  21  57 W21       29.89S WCI  24
ROCHESTER +    CLOUDY    36  25  64 SW9       29.89S WCI  29
SOUTH BEND     CLOUDY    30  22  72 W10       29.88S WCI  21
WARSAW +       CLOUDY    30  21  69 SW7       29.89S WCI  23

$$

INZ006>009-017-018-025>027-102100-
NORTHEAST INDIANA

CITY           SKY/WX    TMP DP  RH WIND       PRES   REMARKS
AUBURN +       CLOUDY    32  21  64 SW7       29.90R WCI  26
FORT WAYNE     MOSUNNY   31  22  69 SW14      29.91R WCI  21
HUNTINGTON +   SUNNY     32  20  60 W8G17     29.90R WCI  25
KENDALLVILLE + CLOUDY    29  20  68 SW10      29.88S WCI  20

$$

INZ028-029-035-036-043>045-051>053-102100-
WEST CENTRAL INDIANA

CITY           SKY/WX    TMP DP  RH WIND       PRES   REMARKS
CRAWFORDSVL +  SUNNY     36  21  54 SW18        N/A  WCI  26
GREENCASTLE +  SUNNY     37  21  52 SW6       29.94S WCI  33
LAFAYETTE      SUNNY     39  21  48 SW15G23   29.90F WCI  31
TERRE HAUTE    SUNNY     40  21  46 SW16G24   29.95F WCI  31

$$

INZ030>032-037>040-046>048-054>057-064-065-102100-
CENTRAL INDIANA

CITY           SKY/WX    TMP DP  RH WIND       PRES   REMARKS
COLUMBUS       MOSUNNY   36  14  41 S17G23    29.97F WCI  25
FRANKFORT +    SUNNY     40  23  49 W20G26    29.91F WCI  31
GREENWOOD *+   SUNNY     39  22  50 SW16      29.94S WCI  31
INDIANAPOLIS   MOSUNNY   37  19  48 SW20G29   29.94S WCI  27
-EAGLE CREEK   SUNNY     37  19  48 SW12G22   29.92S WCI  29
KOKOMO +       SUNNY     36  21  54 SW18      29.91S WCI  26
MARION +       SUNNY     32  21  64 SW18      29.91S HAZE    WCI  21
MT COMFORT *+  SUNNY     34  23  64 SW18G25   29.92S WCI  23
SHELBYVILLE    SUNNY     37  18  46 SW18      29.93F WCI  27
ZIONSVILLE +   SUNNY     35  19  52 SW18G25   29.91F WCI  24

$$

INZ033-034-041-042-049-050-058-059-102100-
EAST CENTRAL INDIANA

CITY           SKY/WX    TMP DP  RH WIND       PRES   REMARKS
MUNCIE         SUNNY     34  19  54 SW17G26   29.90F WCI  23
RICHMOND +     CLOUDY    30  19  64 S18       29.93F WCI  18

$$

INZ060-061-067>069-081>083-085>088-102100-
SOUTHWEST INDIANA

CITY           SKY/WX    TMP DP  RH WIND       PRES   REMARKS
EVANSVILLE     PTSUNNY   42  24  49 S15       30.02F
HUNTINGBURG +  MOSUNNY   39  23  52 S15       30.01F WCI  31
WASHINGTON +   MOSUNNY   40  21  46 SW15      29.99F WCI  31

$$

INZ062-063-066-070>080-084-089>092-102100-
SOUTH CENTRAL AND SOUTHEAST INDIANA

CITY           SKY/WX    TMP DP  RH WIND       PRES   REMARKS
BLOOMINGTON    MOSUNNY   39  20  46 SW14G22   29.95S WCI  31
MADISON *+     MOSUNNY   36  19  51 S13       30.00F WCI  27
NORTH VERNON + CLOUDY    32  18  55 S8        29.98F WCI  25
SEYMOUR +      CLOUDY    41  19  42 S16       29.98F

$$





USA.gov is the U.S. government's official web portal to all federal, state and local government web resources and services.